�������l�o���
Date,Time,MP-1(��Sv/h),MP-2(��Sv/h),MP-3(��Sv/h),MP-4(��Sv/h),MP-5(��Sv/h),MP-6(��Sv/h),MP-7(��Sv/h),MP-8(��Sv/h),����,����(m/s),���J
2018/12/24,00:00,0.774,1.146,0.812,1.479,1.047,0.450,0.795,0.752,�k��,6.2,��
2018/12/24,00:10,0.772,1.145,0.813,1.480,1.047,0.452,0.795,0.754,�k�k��,5.5,��
2018/12/24,00:20,0.771,1.147,0.810,1.480,1.047,0.451,0.796,0.753,�k��,6.2,��
2018/12/24,00:30,0.772,1.146,0.812,1.479,1.046,0.451,0.796,0.752,�k�k��,7.6,��
2018/12/24,00:40,0.772,1.145,0.811,1.479,1.045,0.452,0.794,0.754,�k�k��,7.1,��
2018/12/24,00:50,0.772,1.146,0.812,1.481,1.045,0.453,0.796,0.751,�k��,6.6,��
2018/12/24,01:00,0.773,1.148,0.811,1.478,1.045,0.450,0.797,0.753,�k��,6.5,��
2018/12/24,01:10,0.773,1.145,0.812,1.477,1.048,0.452,0.797,0.752,���k��,4.5,��
2018/12/24,01:20,0.773,1.146,0.810,1.481,1.041,0.451,0.797,0.754,�k��,3.6,��
2018/12/24,01:30,0.771,1.146,0.811,1.479,1.045,0.451,0.798,0.754,���k��,3.2,��
2018/12/24,01:40,0.773,1.147,0.809,1.479,1.047,0.452,0.795,0.755,���k��,4.6,��
2018/12/24,01:50,0.772,1.148,0.811,1.480,1.044,0.452,0.796,0.752,���k��,6.0,��
2018/12/24,02:00,0.770,1.146,0.811,1.476,1.044,0.451,0.795,0.753,���k��,4.5,��
2018/12/24,02:10,0.771,1.147,0.812,1.479,1.045,0.453,0.798,0.753,�k��,3.8,��
2018/12/24,02:20,0.771,1.143,0.810,1.479,1.044,0.454,0.796,0.754,���k��,3.6,��
2018/12/24,02:30,0.772,1.145,0.811,1.478,1.044,0.450,0.795,0.755,���k��,2.8,��
2018/12/24,02:40,0.772,1.144,0.812,1.480,1.047,0.450,0.796,0.754,�k��,6.7,��
2018/12/24,02:50,0.772,1.146,0.811,1.482,1.046,0.452,0.794,0.754,�k�k��,7.1,��
2018/12/24,03:00,0.772,1.146,0.810,1.481,1.044,0.451,0.796,0.753,�k��,8.9,��
2018/12/24,03:10,0.772,1.145,0.809,1.478,1.048,0.451,0.797,0.753,�k��,6.2,��
2018/12/24,03:20,0.772,1.146,0.810,1.481,1.048,0.451,0.797,0.753,�k,6.8,��
2018/12/24,03:30,0.773,1.144,0.811,1.481,1.044,0.452,0.796,0.753,�k�k��,8.4,��
2018/12/24,03:40,0.773,1.145,0.811,1.481,1.045,0.453,0.798,0.752,�k�k��,7.7,��
2018/12/24,03:50,0.773,1.148,0.812,1.479,1.046,0.451,0.798,0.754,�k��,8.3,��
2018/12/24,04:00,0.773,1.146,0.811,1.481,1.046,0.452,0.795,0.754,�k��,7.2,��
2018/12/24,04:10,0.772,1.147,0.812,1.478,1.047,0.451,0.796,0.754,�k�k��,8.7,��
2018/12/24,04:20,0.773,1.148,0.812,1.480,1.047,0.450,0.796,0.753,�k��,10.2,��
2018/12/24,04:30,0.775,1.147,0.812,1.480,1.044,0.451,0.800,0.755,�k��,10.5,��
2018/12/24,04:40,0.772,1.148,0.812,1.480,1.045,0.451,0.797,0.754,�k��,11.3,��
2018/12/24,04:50,0.771,1.145,0.812,1.480,1.047,0.452,0.797,0.753,�k��,11.1,��
2018/12/24,05:00,0.773,1.147,0.811,1.481,1.046,0.452,0.797,0.755,�k��,11.3,��
2018/12/24,05:10,0.774,1.149,0.813,1.480,1.046,0.451,0.796,0.755,�k��,10.6,��
2018/12/24,05:20,0.773,1.149,0.812,1.481,1.044,0.451,0.797,0.756,�k��,10.7,��
2018/12/24,05:30,0.773,1.149,0.813,1.481,1.047,0.452,0.797,0.753,�k��,12.4,��
2018/12/24,05:40,0.775,1.148,0.811,1.483,1.046,0.451,0.797,0.754,�k��,11.9,�L
2018/12/24,05:50,0.774,1.150,0.815,1.482,1.047,0.450,0.796,0.754,�k��,11.9,�L
2018/12/24,06:00,0.773,1.149,0.813,1.482,1.045,0.451,0.797,0.755,�k��,11.4,��
2018/12/24,06:10,0.772,1.151,0.813,1.484,1.046,0.451,0.797,0.755,�k��,9.1,��
2018/12/24,06:20,0.773,1.148,0.814,1.481,1.046,0.451,0.795,0.753,�k��,7.7,��
2018/12/24,06:30,0.773,1.147,0.812,1.483,1.046,0.450,0.795,0.752,�k��,9.0,��
2018/12/24,06:40,0.772,1.145,0.812,1.481,1.045,0.450,0.797,0.755,�k��,10.5,��
2018/12/24,06:50,0.771,1.147,0.812,1.481,1.046,0.450,0.797,0.753,�k��,11.8,��
2018/12/24,07:00,0.771,1.147,0.813,1.483,1.047,0.451,0.797,0.754,�k��,14.1,��
2018/12/24,07:10,0.773,1.147,0.812,1.482,1.046,0.450,0.797,0.753,�k��,13.3,��
2018/12/24,07:20,0.773,1.146,0.811,1.482,1.049,0.450,0.798,0.755,�k��,13.9,��
2018/12/24,07:30,0.772,1.149,0.811,1.482,1.048,0.450,0.796,0.756,�k��,15.0,��
2018/12/24,07:40,0.773,1.148,0.812,1.482,1.046,0.448,0.797,0.755,�k��,13.0,��
2018/12/24,07:50,0.774,1.149,0.809,1.484,1.049,0.448,0.797,0.755,�k��,11.4,��
2018/12/24,08:00,0.774,1.149,0.811,1.482,1.046,0.449,0.796,0.754,�k��,10.0,��
2018/12/24,08:10,0.772,1.148,0.811,1.481,1.047,0.450,0.795,0.753,�k��,10.9,��
2018/12/24,08:20,0.773,1.147,0.811,1.481,1.043,0.450,0.797,0.754,�k��,7.9,��
2018/12/24,08:30,0.772,1.147,0.812,1.483,1.047,0.450,0.796,0.754,�k��,9.0,��
2018/12/24,08:40,0.775,1.149,0.810,1.483,1.048,0.449,0.795,0.754,�k��,7.6,��
2018/12/24,08:50,0.773,1.149,0.811,1.484,1.047,0.451,0.796,0.754,�k��,7.4,��
2018/12/24,09:00,0.772,1.150,0.812,1.484,1.047,0.451,0.796,0.753,�k��,8.9,��
2018/12/24,09:10,0.773,1.149,0.811,1.482,1.048,0.450,0.798,0.755,�k��,10.2,��
2018/12/24,09:20,0.775,1.148,0.812,1.479,1.049,0.449,0.794,0.754,�k��,8.1,��
2018/12/24,09:30,0.771,1.152,0.812,1.482,1.048,0.450,0.797,0.754,�k��,8.0,��
2018/12/24,09:40,0.774,1.152,0.810,1.485,1.049,0.450,0.795,0.755,�k��,7.2,��
2018/12/24,09:50,0.776,1.149,0.813,1.485,1.047,0.451,0.796,0.754,���k��,6.1,��
2018/12/24,10:00,0.775,1.147,0.811,1.485,1.049,0.450,0.795,0.755,�k��,4.3,��
2018/12/24,10:10,0.774,1.148,0.813,1.484,1.051,0.450,0.795,0.755,�k�k��,5.6,��
2018/12/24,10:20,0.774,1.147,0.812,1.483,1.050,0.451,0.796,0.756,�k�k��,5.8,��
2018/12/24,10:30,0.776,1.150,0.813,1.483,1.052,0.450,0.795,0.754,�k�k��,8.3,��
2018/12/24,10:40,0.774,1.149,0.813,1.485,1.053,0.450,0.797,0.755,�k�k��,6.8,��
2018/12/24,10:50,0.775,1.151,0.813,1.484,1.052,0.451,0.794,0.755,�k�k��,5.9,��
2018/12/24,11:00,0.775,1.149,0.811,1.484,1.053,0.450,0.795,0.755,�k��,5.7,��
2018/12/24,11:10,0.775,1.149,0.813,1.484,1.053,0.450,0.795,0.754,�k��,5.6,��
2018/12/24,11:20,0.775,1.151,0.813,1.484,1.053,0.450,0.793,0.756,�k�k��,4.9,��
2018/12/24,11:30,0.776,1.152,0.813,1.486,1.053,0.451,0.793,0.756,�k�k��,6.4,��
2018/12/24,11:40,0.775,1.150,0.811,1.485,1.053,0.451,0.794,0.755,�k�k��,5.8,��
2018/12/24,11:50,0.776,1.154,0.814,1.486,1.052,0.449,0.795,0.755,�k��,8.0,��
2018/12/24,12:00,0.775,1.153,0.813,1.485,1.052,0.450,0.797,0.756,�k��,6.1,��
2018/12/24,12:10,0.776,1.155,0.815,1.484,1.052,0.450,0.795,0.753,�k��,6.8,��
2018/12/24,12:20,0.777,1.149,0.813,1.485,1.055,0.450,0.794,0.755,��,3.5,��
2018/12/24,12:30,0.776,1.153,0.815,1.485,1.054,0.449,0.797,0.756,�k��,4.6,��
2018/12/24,12:40,0.777,1.150,0.816,1.485,1.053,0.449,0.795,0.755,�k�k��,5.4,��
2018/12/24,12:50,0.777,1.151,0.814,1.485,1.051,0.452,0.795,0.756,�k�k��,4.5,��
2018/12/24,13:00,0.776,1.155,0.815,1.487,1.056,0.451,0.794,0.754,�k��,5.2,��
2018/12/24,13:10,0.778,1.152,0.813,1.487,1.053,0.452,0.796,0.755,�k��,5.9,��
2018/12/24,13:20,0.776,1.150,0.813,1.484,1.053,0.450,0.795,0.755,�k��,6.6,��
2018/12/24,13:30,0.778,1.151,0.812,1.485,1.055,0.451,0.795,0.757,���k��,6.0,��
2018/12/24,13:40,0.778,1.151,0.814,1.485,1.055,0.451,0.794,0.753,�k��,6.6,��
2018/12/24,13:50,0.775,1.152,0.813,1.485,1.055,0.450,0.796,0.754,�k��,6.7,��
2018/12/24,14:00,0.777,1.154,0.814,1.485,1.052,0.451,0.797,0.755,�k��,7.5,��
2018/12/24,14:10,0.777,1.151,0.813,1.485,1.053,0.450,0.796,0.754,�k��,7.4,��
2018/12/24,14:20,0.777,1.152,0.815,1.484,1.054,0.449,0.796,0.756,�k��,7.3,��
2018/12/24,14:30,0.778,1.152,0.813,1.485,1.055,0.450,0.795,0.753,�k��,6.7,��
2018/12/24,14:40,0.778,1.153,0.816,1.485,1.055,0.448,0.797,0.753,�k��,9.3,��
2018/12/24,14:50,0.775,1.155,0.812,1.485,1.053,0.450,0.795,0.756,�k��,6.8,��
2018/12/24,15:00,0.778,1.155,0.812,1.485,1.052,0.450,0.797,0.754,�k��,7.4,��
2018/12/24,15:10,0.775,1.156,0.813,1.486,1.052,0.449,0.797,0.754,�k��,6.1,��
2018/12/24,15:20,0.775,1.155,0.813,1.484,1.053,0.450,0.796,0.753,�k��,5.4,��
2018/12/24,15:30,0.775,1.156,0.814,1.486,1.053,0.449,0.798,0.755,�k��,5.9,��
2018/12/24,15:40,0.774,1.156,0.813,1.486,1.052,0.450,0.796,0.753,�k��,8.0,��
2018/12/24,15:50,0.775,1.157,0.812,1.485,1.054,0.448,0.796,0.754,�k��,4.7,��
2018/12/24,16:00,0.776,1.156,0.814,1.487,1.054,0.449,0.795,0.754,�k��,6.8,��
2018/12/24,16:10,0.776,1.156,0.814,1.485,1.056,0.450,0.798,0.753,�k��,5.1,��
2018/12/24,16:20,0.774,1.156,0.813,1.486,1.053,0.449,0.797,0.756,�k��,5.9,��
2018/12/24,16:30,0.776,1.156,0.813,1.487,1.053,0.451,0.796,0.753,�k��,6.0,��
2018/12/24,16:40,0.775,1.158,0.814,1.487,1.053,0.449,0.796,0.754,�k��,5.9,��
2018/12/24,16:50,0.774,1.159,0.810,1.487,1.054,0.451,0.796,0.753,�k��,6.3,��
2018/12/24,17:00,0.775,1.157,0.814,1.487,1.051,0.448,0.796,0.754,�k��,7.0,��
2018/12/24,17:10,0.772,1.158,0.814,1.484,1.053,0.449,0.795,0.755,�k��,7.4,��
2018/12/24,17:20,0.773,1.155,0.814,1.484,1.053,0.450,0.796,0.755,�k��,7.3,��
2018/12/24,17:30,0.773,1.155,0.812,1.487,1.054,0.450,0.795,0.753,�k��,6.4,��
2018/12/24,17:40,0.774,1.155,0.813,1.486,1.054,0.449,0.796,0.754,�k��,6.4,��
2018/12/24,17:50,0.775,1.156,0.813,1.484,1.053,0.450,0.796,0.753,�k��,6.0,��
2018/12/24,18:00,0.774,1.159,0.814,1.487,1.054,0.449,0.796,0.754,�k��,7.5,��
2018/12/24,18:10,0.774,1.156,0.811,1.486,1.055,0.450,0.796,0.754,�k��,7.0,��
2018/12/24,18:20,0.774,1.157,0.813,1.487,1.053,0.450,0.795,0.754,�k��,5.3,��
2018/12/24,18:30,0.774,1.157,0.813,1.485,1.053,0.448,0.795,0.755,�k��,4.5,��
2018/12/24,18:40,0.774,1.155,0.814,1.486,1.054,0.448,0.796,0.754,�k��,5.7,��
2018/12/24,18:50,0.776,1.157,0.810,1.486,1.054,0.449,0.794,0.754,�k��,4.7,��
2018/12/24,19:00,0.774,1.155,0.810,1.485,1.053,0.450,0.795,0.753,�k��,5.0,��
2018/12/24,19:10,0.771,1.157,0.811,1.485,1.052,0.448,0.794,0.753,���k��,4.4,��
2018/12/24,19:20,0.773,1.156,0.810,1.486,1.051,0.447,0.794,0.754,�k��,4.5,��
2018/12/24,19:30,0.773,1.155,0.809,1.486,1.053,0.449,0.793,0.753,���k��,3.2,��
2018/12/24,19:40,0.772,1.155,0.811,1.483,1.053,0.449,0.795,0.754,�k��,3.1,��
2018/12/24,19:50,0.772,1.153,0.809,1.486,1.050,0.448,0.796,0.754,�k��,2.9,��
2018/12/24,20:00,0.774,1.154,0.810,1.486,1.052,0.450,0.796,0.753,�k��,3.1,��
2018/12/24,20:10,0.773,1.155,0.811,1.486,1.052,0.449,0.794,0.754,�k��,3.1,��
2018/12/24,20:20,0.775,1.154,0.810,1.487,1.052,0.449,0.794,0.753,��,1.9,��
2018/12/24,20:30,0.772,1.154,0.810,1.485,1.052,0.447,0.793,0.754,�쐼,2.0,��
2018/12/24,20:40,0.773,1.156,0.810,1.486,1.051,0.447,0.794,0.752,��쐼,2.3,��
2018/12/24,20:50,0.774,1.155,0.810,1.486,1.054,0.448,0.794,0.753,���쐼,2.5,��
2018/12/24,21:00,0.773,1.153,0.811,1.484,1.052,0.449,0.793,0.752,���쐼,3.3,��
2018/12/24,21:10,0.774,1.154,0.812,1.487,1.053,0.448,0.793,0.752,��,5.0,��
2018/12/24,21:20,0.771,1.155,0.812,1.487,1.050,0.448,0.793,0.753,��,5.9,��
2018/12/24,21:30,0.770,1.156,0.810,1.486,1.050,0.448,0.792,0.754,��,5.5,��
2018/12/24,21:40,0.772,1.155,0.811,1.490,1.051,0.447,0.796,0.753,��,6.5,��
2018/12/24,21:50,0.773,1.154,0.811,1.487,1.052,0.449,0.793,0.752,��,6.4,��
2018/12/24,22:00,0.771,1.154,0.812,1.483,1.051,0.448,0.794,0.753,��,6.2,��
2018/12/24,22:10,0.773,1.153,0.811,1.485,1.051,0.449,0.794,0.752,��,5.0,��
2018/12/24,22:20,0.773,1.156,0.812,1.483,1.050,0.449,0.795,0.753,��,3.4,��
2018/12/24,22:30,0.775,1.155,0.811,1.484,1.051,0.448,0.792,0.753,���k��,5.5,��
2018/12/24,22:40,0.774,1.154,0.811,1.486,1.051,0.448,0.794,0.754,���k��,5.1,��
2018/12/24,22:50,0.771,1.154,0.811,1.483,1.051,0.447,0.793,0.752,���k��,4.9,��
2018/12/24,23:00,0.773,1.153,0.810,1.485,1.051,0.448,0.793,0.753,���k��,5.2,��
2018/12/24,23:10,0.772,1.156,0.810,1.485,1.050,0.447,0.794,0.753,���k��,4.5,��
2018/12/24,23:20,0.773,1.154,0.810,1.485,1.054,0.447,0.794,0.751,���k��,4.8,��
2018/12/24,23:30,0.772,1.154,0.810,1.483,1.049,0.449,0.792,0.753,���k��,5.1,��
2018/12/24,23:40,0.773,1.154,0.811,1.483,1.050,0.448,0.793,0.751,���k��,4.6,��
2018/12/24,23:50,0.770,1.155,0.810,1.485,1.051,0.448,0.791,0.754,��,4.2,��
